Home   Weather   Ndjamena   Past weeks

Flag for Chad Past Weather in Ndjamena, Chad — Yesterday and Last 2 Weeks

Now
97 °F

Clear.


Feels Like: 92 °F
Forecast: 66 / 97 °F
Wind: 14 mph from East

Location: Ndjamena

Current Time: Dec 9, 2016 at 12:51:06 pm

Latest Report: Dec 9, 2016 at 12:00 pm


Visibility: 4 mi

Pressure: 29.89 "Hg

Humidity: 9%

Dew Point: 30 °F

Location of NdjamenaLocation

Past Weather in Ndjamena — Graph

°F

Ndjamena Temperature Yesterday

Maximum temperature yesterday: 102 °F (at 2:00 pm)
Minimum temperature yesterday: 68 °F (at 5:00 am)
Average temperature yesterday: 85 °F

High & Low Weather Summary for the Past Weeks

 TemperatureHumidityPressure
High102 °F (Nov 28, 2:00 pm)50% (Nov 25, 7:00 am)29.95 "Hg (Nov 25, 7:00 am)
Low64 °F (Nov 27, 5:00 am)6% (Dec 6, 3:00 pm)29.71 "Hg (Nov 28, 3:00 pm)
Average83 °F22%29.85 "Hg
* Reported Nov 24 11:00 am — Dec 9 11:00 am, Ndjamena, Weather by CustomWeather, © 2016

Note: Actual official high and low records may vary slightly from our data, if they occured in-between our weather recording intervals... More about our weather records

Advertising

Ndjamena Weather History for the Previous 24 Hours

Scroll right to see more
 ConditionsComfort  
Time TempWeatherWind HumidityBarometerVisibility
11:00 am
Fri, Dec 9
91 °FClear.13 mph12%29.92 "Hg4 mi
10:00 am90 °FClear.17 mph13%29.95 "Hg4 mi
9:00 am82 °FClear.15 mph16%29.95 "Hg4 mi
8:00 am77 °FHaze.13 mph19%29.92 "Hg2 mi
7:00 am70 °FClear.7 mph29%29.89 "Hg5 mi
6:00 am70 °FClear.8 mph27%29.89 "Hg10 mi
5:00 am68 °FClear.7 mph35%29.86 "Hg10 mi
4:00 am72 °FClear.8 mph33%29.86 "Hg10 mi
3:00 am73 °FClear.8 mph33%29.86 "Hg10 mi
2:00 am75 °FClear.9 mph29%29.89 "Hg10 mi
1:00 am75 °FClear.8 mph29%29.89 "Hg10 mi
12:00 am77 °FClear.7 mph22%29.89 "Hg5 mi
11:00 pm
Thu, Dec 8
79 °FDuststorm.6 mph21%29.89 "Hg2 mi
10:00 pm79 °FDuststorm.5 mph24%29.89 "Hg2 mi
9:00 pm81 °FDuststorm.2 mph23%29.89 "Hg2 mi
8:00 pm82 °FDuststorm.No wind21%29.86 "Hg2 mi
7:00 pm86 °FClear.3 mph18%29.83 "Hg4 mi
6:00 pm90 °FClear.5 mph14%29.83 "Hg4 mi
5:00 pm97 °FClear.8 mph13%29.80 "Hg4 mi
4:00 pm100 °FPassing clouds.8 mph14%29.80 "HgN/A
3:00 pm102 °FClear.10 mph16%29.80 "Hg4 mi
2:00 pm102 °FClear.10 mph12%29.83 "Hg5 mi
1:00 pm100 °FClear.10 mph18%29.86 "Hg4 mi
12:00 pm99 °FClear.10 mph18%29.92 "Hg4 mi
Weather by CustomWeather, © 2016

See weather overviewHow to use our weather pages